QPF
0.15 0.01 0.00 0.00 0.00 0.00 0.00 0.02 0.03 0.02 0.00 0.00 0.00 0.00 0.00 0.00 0.00 0.00 0.00 0.00 0.00 0.05 0.01 0.01 0.12 0.14 0.04 0.02 0.03 0.02 0.04 0.00 0.00 0.00 0.00 0.00 0.04 0.02 0.00 0.01 0.01 0.02 0.01
0.29 0.08 0.02 0.00 0.00 0.00 0.00 0.01 0.02 0.01 0.01 0.00 0.00 0.00 0.00 0.00 0.04 0.02 0.00 0.00 0.00 0.04 0.14 0.05 0.12 0.10 0.08 0.01 0.00 0.01 0.01 0.00 0.01 0.02 0.02 0.00 0.00 0.00 0.00 0.00 0.00 0.01 0.03
0.35 0.11 0.02 0.02 0.03 0.03 0.01 0.00 0.00 0.00 0.01 0.01 0.00 0.00 0.00 0.00 0.00 0.00 0.00 0.00 0.00 0.01 0.05 0.01 0.11 0.06 0.09 0.05 0.00 0.00 0.00 0.00 0.00 0.01 0.01 0.01 0.01 0.00 0.00 0.00 0.00 0.00 0.00
0.08 0.03 0.01 0.00 0.02 0.03 0.06 0.06 0.03 0.01 0.02 0.01 0.00 0.00 0.00 0.00 0.00 0.00 0.00 0.00 0.01 0.00 0.00 0.00 0.00 0.00 0.01 0.00 0.00 0.00 0.00 0.00 0.00 0.00 0.00 0.00 0.00 0.01 0.00 0.01 0.00 0.00 0.00
0.01 0.00 0.00 0.00 0.00 0.02 0.03 0.04 0.05 0.06 0.05 0.05 0.02 0.01 0.00 0.00 0.00 0.00 0.00 0.00 0.00 0.00 0.00 0.00 0.01 0.01 0.00 0.00 0.00 0.00 0.00 0.00 0.00 0.00 0.00 0.00 0.00 0.00 0.01 0.02 0.00 0.00 0.00
0.02 0.07 0.03 0.00 0.00 0.01 0.00 0.00 0.00 0.00 0.04 0.06 0.03 0.03 0.00 0.01 0.00 0.00 0.00 0.00 0.00 0.00 0.00 0.04 0.06 0.02 0.00 0.00 0.00 0.00 0.00 0.00 0.00 0.00 0.00 0.00 0.00 0.00 0.00 0.00 0.00 0.00 0.00
0.01 0.02 0.10 0.28 0.13 0.03 0.00 0.00 0.00 0.00 0.01 0.00 0.01 0.01 0.00 0.00 0.00 0.00 0.00 0.00 0.00 0.00 0.03 0.05 0.05 0.02 0.01 0.03 0.01 0.00 0.00 0.00 0.00 0.01 0.00 0.00 0.00 0.00 0.01 0.01 0.01 0.00 0.00
0.00 0.00 0.02 0.11 0.16 0.05 0.00 0.00 0.00 0.00 0.00 0.00 0.00 0.01 0.00 0.00 0.00 0.02 0.00 0.00 0.00 0.00 0.00 0.02 0.02 0.02 0.01 0.01 0.01 0.00 0.00 0.00 0.00 0.00 0.00 0.00 0.00 0.01 0.01 0.02 0.03 0.00 0.00
0.00 0.00 0.00 0.00 0.00 0.00 0.00 0.00 0.00 0.00 0.00 0.01 0.02 0.00 0.00 0.00 0.03 0.09 0.03 0.00 0.00 0.00 0.00 0.00 0.01 0.01 0.00 0.00 0.01 0.01 0.01 0.00 0.00 0.00 0.00 0.00 0.00 0.00 0.00 0.00 0.01 0.00 0.00
0.00 0.00 0.00 0.00 0.00 0.00 0.00 0.00 0.00 0.00 0.00 0.00 0.01 0.00 0.00 0.00 0.04 0.11 0.04 0.00 0.00 0.00 0.02 0.04 0.01 0.01 0.00 0.00 0.00 0.01 0.01 0.01 0.04 0.04 0.03 0.01 0.01 0.01 0.03 0.01 0.06 0.01 0.00
0.00 0.00 0.00 0.00 0.00 0.00 0.00 0.00 0.00 0.00 0.00 0.00 0.00 0.00 0.00 0.00 0.03 0.12 0.07 0.00 0.00 0.01 0.03 0.06 0.03 0.00 0.00 0.01 0.00 0.04 0.06 0.08 0.03 0.03 0.07 0.09 0.05 0.01 0.00 0.01 0.01 0.00 0.02
0.00 0.00 0.00 0.00 0.00 0.00 0.00 0.00 0.00 0.00 0.00 0.00 0.00 0.00 0.00 0.00 0.01 0.03 0.11 0.03 0.10 0.09 0.14 0.13 0.08 0.09 0.18 0.16 0.08 0.06 0.05 0.04 0.08 0.07 0.09 0.08 0.03 0.01 0.00 0.00 0.00 0.00 0.00
0.00 0.00 0.00 0.00 0.00 0.00 0.00 0.00 0.00 0.00 0.00 0.00 0.00 0.00 0.00 0.00 0.01 0.01 0.03 0.08 0.15 0.10 0.12 0.26 0.30 0.40 0.26 0.16 0.13 0.09 0.10 0.12 0.14 0.09 0.02 0.02 0.01 0.01 0.00 0.00 0.00 0.00 0.00
0.00 0.00 0.00 0.00 0.00 0.00 0.00 0.00 0.00 0.00 0.00 0.00 0.00 0.00 0.00 0.00 0.00 0.00 0.02 0.02 0.05 0.05 0.04 0.04 0.08 0.19 0.20 0.18 0.16 0.11 0.11 0.12 0.10 0.08 0.08 0.06 0.06 0.02 0.00 0.00 0.00 0.00 0.01
0.00 0.00 0.00 0.00 0.00 0.00 0.00 0.00 0.00 0.00 0.00 0.00 0.00 0.00 0.00 0.00 0.00 0.02 0.01 0.01 0.04 0.02 0.00 0.00 0.00 0.07 0.14 0.16 0.19 0.16 0.12 0.08 0.06 0.05 0.06 0.04 0.02 0.01 0.00 0.00 0.00 0.00 0.01
0.00 0.00 0.00 0.00 0.00 0.00 0.00 0.00 0.00 0.00 0.00 0.00 0.00 0.00 0.00 0.00 0.02 0.05 0.05 0.03 0.02 0.01 0.00 0.00 0.00 0.02 0.03 0.03 0.04 0.06 0.09 0.10 0.07 0.02 0.00 0.00 0.00 0.00 0.00 0.00 0.00 0.00 0.00
0.00 0.00 0.00 0.00 0.00 0.00 0.00 0.00 0.00 0.00 0.00 0.00 0.00 0.00 0.01 0.01 0.02 0.04 0.08 0.06 0.03 0.03 0.01 0.00 0.00 0.01 0.05 0.04 0.04 0.03 0.04 0.02 0.01 0.00 0.00 0.00 0.00 0.00 0.00 0.00 0.00 0.00 0.00
0.00 0.00 0.00 0.00 0.00 0.00 0.00 0.00 0.00 0.00 0.00 0.00 0.00 0.00 0.00 0.00 0.01 0.04 0.10 0.07 0.02 0.03 0.01 0.00 0.00 0.01 0.01 0.01 0.01 0.00 0.00 0.00 0.00 0.00 0.00 0.00 0.00 0.00 0.00 0.00 0.00 0.00 0.00
0.00 0.00 0.00 0.00 0.00 0.00 0.00 0.00 0.00 0.00 0.00 0.00 0.00 0.00 0.00 0.01 0.02 0.02 0.04 0.02 0.01 0.01 0.00 0.00 0.00 0.00 0.01 0.01 0.01 0.00 0.00 0.00 0.00 0.00 0.00 0.00 0.00 0.00 0.00 0.00 0.00 0.00 0.00
0.00 0.00 0.01 0.00 0.00 0.00 0.00 0.00 0.00 0.00 0.00 0.00 0.00 0.00 0.00 0.01 0.02 0.02 0.02 0.01 0.01 0.01 0.00 0.01 0.02 0.02 0.02 0.01 0.00 0.00 0.00 0.00 0.00 0.00 0.00 0.00 0.00 0.00 0.00 0.00 0.00 0.00 0.00
0.02 0.02 0.06 0.03 0.01 0.00 0.00 0.00 0.00 0.00 0.00 0.00 0.00 0.00 0.00 0.01 0.02 0.05 0.03 0.02 0.01 0.01 0.03 0.04 0.03 0.02 0.01 0.00 0.00 0.00 0.00 0.00 0.00 0.00 0.00 0.00 0.00 0.00 0.00 0.00 0.00 0.00 0.00
0.04 0.07 0.07 0.02 0.00 0.00 0.00 0.00 0.00 0.00 0.00 0.00 0.00 0.00 0.02 0.01 0.02 0.03 0.03 0.06 0.06 0.03 0.09 0.03 0.02 0.00 0.00 0.00 0.00 0.00 0.00 0.00 0.00 0.00 0.00 0.00 0.00 0.00 0.00 0.00 0.00 0.00 0.00
0.02 0.01 0.01 0.00 0.00 0.01 0.01 0.00 0.00 0.00 0.00 0.00 0.00 0.01 0.02 0.02 0.04 0.05 0.02 0.04 0.03 0.02 0.01 0.00 0.00 0.00 0.00 0.00 0.00 0.00 0.00 0.00 0.00 0.00 0.00 0.00 0.00 0.00 0.00 0.00 0.00 0.00 0.00
0.12 0.08 0.05 0.02 0.01 0.00 0.00 0.00 0.00 0.00 0.00 0.00 0.00 0.03 0.05 0.07 0.05 0.05 0.04 0.02 0.02 0.01 0.01 0.01 0.01 0.00 0.00 0.00 0.00 0.00 0.00 0.00 0.00 0.00 0.00 0.00 0.00 0.00 0.00 0.00 0.00 0.00 0.00
0.30 0.21 0.14 0.06 0.02 0.00 0.00 0.01 0.01 0.01 0.00 0.00 0.01 0.04 0.07 0.10 0.07 0.08 0.02 0.01 0.01 0.01 0.00 0.00 0.00 0.00 0.00 0.00 0.00 0.00 0.00 0.00 0.00 0.00 0.00 0.00 0.00 0.00 0.00 0.00 0.00 0.00 0.00
0.42 0.27 0.15 0.07 0.02 0.01 0.01 0.02 0.03 0.02 0.02 0.01 0.02 0.06 0.10 0.11 0.05 0.05 0.03 0.04 0.01 0.00 0.00 0.00 0.00 0.00 0.00 0.00 0.00 0.00 0.00 0.00 0.00 0.00 0.00 0.00 0.00 0.00 0.00 0.00 0.00 0.00 0.00
MSLP
1014.00 1014.35 1014.42 1014.68 1015.16 1015.54 1015.64 1016.22 1016.32 1016.55 1016.71 1017.08 1017.13 1017.22 1017.24 1017.38 1017.61 1017.89 1017.98 1018.05 1018.29 1018.20 1018.42 1018.46 1018.31 1018.49 1018.93 1019.26 1019.49 1019.67 1019.82 1020.04 1019.82 1019.44 1019.42 1019.31 1019.18 1019.20 1019.20 1019.50 1019.55 1019.21 1019.37
1013.56 1014.32 1014.11 1013.54 1014.35 1014.50 1014.66 1015.23 1015.67 1015.87 1016.01 1016.28 1016.50 1016.51 1016.56 1016.65 1016.90 1017.06 1017.17 1017.25 1017.31 1017.08 1017.03 1017.42 1017.46 1017.46 1017.90 1018.24 1018.50 1018.90 1019.17 1019.38 1019.40 1019.12 1018.95 1019.23 1019.09 1019.10 1019.18 1019.28 1018.99 1019.24 1019.12
1012.87 1012.75 1013.03 1013.03 1013.37 1013.62 1013.77 1014.31 1014.76 1015.04 1015.12 1015.28 1015.52 1015.62 1015.62 1015.67 1015.98 1016.16 1016.32 1016.51 1016.51 1016.34 1016.23 1016.55 1016.57 1016.51 1016.93 1017.28 1017.48 1017.70 1017.90 1018.43 1018.80 1018.83 1018.85 1019.02 1018.70 1018.68 1018.98 1019.19 1019.01 1018.63 1018.50
1011.77 1011.29 1012.16 1012.44 1012.69 1013.30 1013.63 1013.92 1014.11 1014.24 1014.25 1014.43 1014.58 1014.64 1014.76 1014.81 1014.99 1015.12 1015.35 1015.55 1015.51 1015.40 1015.47 1015.63 1015.71 1015.95 1016.25 1016.46 1016.74 1017.03 1017.27 1017.49 1017.93 1018.31 1018.65 1018.74 1018.52 1018.26 1018.57 1018.67 1018.66 1018.28 1018.03
1012.39 1011.83 1011.51 1011.85 1012.39 1012.56 1012.93 1013.29 1013.47 1013.36 1013.41 1013.52 1013.85 1013.87 1014.02 1013.97 1014.06 1014.02 1014.32 1014.61 1014.60 1014.56 1014.83 1015.14 1015.30 1015.43 1015.98 1016.13 1016.21 1016.50 1016.55 1016.91 1017.32 1017.65 1017.90 1018.04 1017.66 1017.55 1017.56 1017.51 1017.69 1017.67 1017.54
1011.37 1012.89 1012.92 1012.65 1012.75 1013.35 1013.24 1012.75 1012.80 1012.76 1012.59 1012.62 1012.97 1013.03 1013.26 1013.05 1012.80 1013.24 1013.62 1013.77 1013.87 1013.91 1014.25 1014.58 1014.99 1015.14 1015.61 1015.91 1016.18 1016.31 1016.33 1016.53 1016.91 1017.07 1017.14 1017.00 1016.99 1016.93 1016.98 1017.00 1017.06 1017.03 1016.63
1011.19 1011.41 1012.34 1011.59 1012.90 1012.72 1012.55 1012.39 1012.53 1012.45 1012.18 1012.02 1012.00 1012.11 1012.11 1011.95 1012.34 1012.94 1013.41 1013.55 1013.26 1013.49 1013.82 1014.02 1014.22 1014.21 1014.68 1015.01 1015.57 1015.92 1016.22 1016.52 1016.55 1016.42 1016.40 1016.28 1016.22 1016.28 1016.42 1016.69 1016.77 1016.77 1016.55
1011.39 1011.87 1012.12 1012.24 1012.06 1012.49 1012.32 1011.74 1012.00 1011.79 1011.61 1011.23 1011.25 1011.44 1011.33 1011.27 1011.77 1012.40 1012.71 1013.12 1012.83 1012.83 1012.89 1013.16 1013.57 1013.66 1013.98 1014.31 1014.66 1015.05 1015.35 1015.48 1015.72 1015.94 1015.89 1015.83 1015.85 1015.87 1016.08 1016.24 1016.55 1016.70 1016.59
1011.31 1011.72 1012.27 1012.54 1013.00 1013.01 1012.03 1011.51 1011.62 1011.43 1011.22 1010.64 1010.54 1010.81 1010.83 1010.63 1011.06 1011.64 1012.28 1012.27 1012.02 1012.05 1012.13 1012.43 1012.71 1012.97 1013.40 1014.03 1014.33 1014.40 1014.35 1014.35 1014.69 1015.33 1015.50 1015.74 1015.96 1016.19 1016.07 1015.78 1015.68 1016.13 1015.57
1010.84 1010.89 1011.10 1011.45 1011.65 1011.75 1011.69 1011.59 1011.21 1011.01 1010.66 1010.34 1010.12 1010.19 1010.31 1010.39 1010.50 1010.98 1011.71 1011.35 1011.40 1011.55 1011.95 1012.35 1012.95 1013.27 1013.64 1013.96 1014.21 1014.20 1014.21 1013.94 1013.91 1014.26 1014.95 1015.30 1015.42 1015.48 1016.12 1015.68 1015.33 1015.20 1015.11
1010.46 1010.58 1010.94 1011.08 1010.75 1010.72 1010.95 1010.88 1010.78 1010.60 1010.62 1010.43 1010.21 1009.88 1010.05 1010.00 1010.08 1010.47 1010.89 1011.01 1010.69 1010.95 1011.57 1012.40 1012.84 1013.36 1014.25 1014.23 1014.19 1014.05 1013.84 1013.79 1014.03 1013.87 1014.02 1014.17 1014.30 1014.31 1014.70 1015.18 1015.18 1015.18 1014.65
1011.42 1011.04 1010.76 1010.62 1010.41 1010.28 1010.29 1010.33 1010.56 1010.48 1010.50 1010.46 1010.47 1010.11 1010.31 1010.19 1010.19 1010.27 1010.15 1010.73 1010.80 1010.25 1010.70 1011.50 1011.30 1010.52 1011.96 1013.79 1014.81 1014.03 1013.70 1013.81 1013.73 1013.78 1013.54 1013.56 1013.58 1013.49 1013.83 1014.11 1014.52 1014.78 1014.44
1011.32 1011.20 1010.79 1010.18 1010.03 1010.09 1010.09 1010.06 1010.11 1010.30 1010.25 1010.20 1010.03 1010.04 1010.29 1010.40 1010.35 1010.06 1009.91 1010.13 1010.07 1010.25 1009.78 1009.31 1009.09 1008.74 1009.16 1011.65 1012.43 1013.65 1013.90 1013.70 1013.95 1013.79 1013.65 1013.43 1013.27 1013.47 1013.70 1013.89 1014.06 1014.29 1014.43
1011.06 1010.72 1010.59 1010.39 1010.06 1010.09 1009.85 1009.43 1009.51 1009.70 1009.85 1009.99 1009.95 1010.24 1010.41 1010.61 1010.54 1010.48 1010.40 1010.26 1010.29 1010.75 1010.32 1010.16 1010.23 1010.34 1009.65 1011.46 1013.05 1013.01 1013.70 1013.59 1013.18 1013.55 1013.56 1013.63 1013.56 1014.11 1014.16 1013.94 1014.00 1014.14 1013.94
1010.27 1010.09 1009.99 1009.78 1009.78 1009.88 1009.36 1008.85 1008.81 1008.98 1009.27 1009.49 1009.82 1010.01 1010.07 1010.21 1010.31 1010.14 1009.85 1009.74 1009.99 1010.63 1010.55 1010.85 1010.72 1010.52 1010.69 1011.63 1011.98 1013.33 1013.38 1013.09 1013.04 1013.25 1013.28 1012.82 1013.79 1014.44 1014.09 1014.25 1014.32 1014.26 1013.65
1009.36 1009.05 1008.72 1008.52 1008.54 1008.53 1008.56 1008.29 1008.69 1008.69 1009.16 1009.48 1009.63 1010.00 1009.80 1009.83 1010.07 1010.11 1010.03 1009.80 1009.93 1009.99 1009.76 1009.81 1010.15 1010.47 1010.53 1010.80 1011.34 1012.58 1012.75 1012.63 1012.87 1013.48 1011.97 1013.07 1013.89 1014.03 1014.19 1014.43 1014.30 1013.99 1013.90
1008.44 1008.08 1007.85 1007.63 1007.30 1007.10 1007.21 1007.25 1007.48 1007.73 1008.32 1008.73 1008.99 1009.24 1009.55 1009.57 1009.75 1009.73 1009.53 1009.49 1009.71 1009.73 1009.15 1009.12 1009.56 1010.03 1010.16 1010.47 1011.17 1011.89 1012.13 1012.54 1012.80 1012.14 1012.69 1013.51 1013.81 1014.22 1014.23 1014.01 1014.09 1014.22 1014.30
1007.64 1007.19 1006.96 1006.30 1006.00 1005.75 1005.72 1005.85 1006.40 1006.91 1007.15 1007.41 1008.40 1008.76 1008.80 1008.86 1008.99 1009.21 1008.97 1009.27 1009.64 1009.48 1009.00 1009.07 1009.32 1009.53 1010.02 1010.66 1010.86 1011.22 1011.68 1012.18 1012.46 1013.08 1013.40 1013.44 1013.66 1013.89 1014.32 1014.46 1014.56 1014.64 1014.63
1006.59 1006.00 1005.59 1005.10 1004.65 1004.65 1004.75 1004.95 1005.18 1005.90 1006.25 1006.62 1007.08 1008.19 1008.43 1008.56 1008.67 1008.59 1008.40 1008.34 1008.47 1008.53 1008.63 1008.79 1008.80 1009.31 1009.96 1010.61 1011.08 1011.64 1012.21 1012.58 1013.16 1013.82 1013.83 1013.70 1013.96 1014.17 1014.65 1014.83 1015.31 1015.45 1015.35
1005.40 1004.94 1004.69 1004.24 1003.83 1003.73 1003.80 1003.84 1004.05 1004.80 1005.26 1005.74 1006.31 1006.87 1007.61 1008.44 1008.56 1008.45 1008.26 1007.87 1007.76 1007.88 1008.10 1008.62 1008.94 1009.78 1010.69 1011.20 1012.03 1012.67 1013.29 1013.58 1013.91 1014.16 1014.25 1014.67 1014.94 1014.97 1015.05 1015.31 1015.56 1015.41 1015.58
1004.38 1003.95 1003.66 1003.25 1003.10 1002.79 1002.59 1002.69 1002.97 1003.55 1003.98 1004.56 1005.24 1006.14 1006.60 1007.54 1007.63 1007.59 1007.40 1007.02 1006.98 1007.97 1008.36 1008.98 1009.73 1010.44 1011.07 1011.73 1012.19 1012.88 1013.52 1014.36 1014.40 1014.59 1014.93 1015.39 1015.42 1015.52 1015.75 1015.87 1015.76 1015.73 1016.01
1003.43 1003.08 1002.80 1002.37 1002.05 1001.99 1001.82 1001.92 1002.08 1002.67 1003.29 1003.90 1004.70 1005.97 1006.40 1007.06 1007.07 1007.18 1007.17 1007.59 1007.98 1008.47 1008.86 1009.07 1009.90 1010.79 1011.58 1012.17 1012.77 1013.37 1013.92 1014.59 1014.85 1015.19 1015.49 1015.82 1016.03 1016.04 1016.03 1016.02 1015.88 1016.17 1016.42
1002.30 1002.02 1001.75 1001.38 1001.29 1001.13 1001.48 1001.51 1001.48 1001.94 1002.50 1003.40 1004.41 1005.45 1006.26 1006.55 1006.92 1007.42 1007.89 1008.61 1009.03 1009.36 1009.65 1009.88 1010.72 1011.69 1012.44 1013.02 1013.47 1013.87 1014.41 1015.01 1015.56 1015.62 1015.90 1016.08 1016.15 1016.32 1016.34 1016.49 1016.54 1016.75 1016.81
1000.79 1000.40 1000.12 1000.09 1000.31 1000.36 1000.49 1000.82 1001.20 1001.65 1002.16 1003.10 1004.01 1004.96 1005.75 1006.48 1007.26 1007.94 1008.49 1008.84 1009.44 1009.92 1010.49 1011.21 1011.83 1012.39 1013.48 1013.75 1014.36 1014.92 1015.25 1015.70 1016.06 1016.21 1016.12 1016.38 1016.65 1016.95 1016.94 1016.99 1017.06 1017.19 1017.03
998.96 998.49 998.04 998.20 999.05 999.50 999.94 1000.28 1000.56 1001.08 1001.88 1002.97 1003.85 1004.90 1005.93 1006.85 1007.86 1008.63 1008.94 1009.25 1010.02 1010.63 1011.27 1011.89 1012.48 1013.29 1013.88 1014.31 1014.87 1015.54 1016.48 1016.78 1016.49 1016.80 1016.64 1016.94 1017.08 1017.20 1017.09 1017.15 1017.21 1017.25 1017.35
996.68 996.38 996.64 996.60 997.14 998.17 999.03 999.41 999.92 1000.64 1001.79 1002.85 1004.00 1005.15 1006.06 1007.26 1008.20 1009.08 1009.61 1010.12 1010.76 1011.32 1012.49 1012.94 1013.36 1014.13 1014.59 1015.02 1015.88 1016.89 1017.35 1017.51 1017.52 1017.49 1016.96 1017.03 1017.21 1017.26 1017.36 1017.56 1017.73 1017.40 1017.47
Thickness
5797 5793 5794 5795 5795 5792 5787 5776 5778 5779 5780 5779 5779 5778 5778 5778 5777 5775 5775 5775 5772 5774 5773 5771 5772 5770 5765 5762 5759 5758 5755 5752 5747 5751 5752 5751 5750 5748 5749 5748 5748 5751 5750
5794 5777 5785 5796 5793 5794 5793 5782 5781 5781 5782 5782 5782 5782 5781 5781 5780 5777 5776 5778 5778 5779 5781 5778 5776 5777 5772 5769 5766 5762 5758 5756 5752 5748 5752 5748 5747 5746 5744 5745 5749 5748 5749
5797 5778 5789 5797 5798 5797 5797 5790 5786 5785 5786 5788 5788 5787 5788 5787 5784 5782 5781 5780 5782 5786 5787 5783 5782 5784 5778 5775 5774 5770 5767 5762 5756 5751 5747 5747 5748 5748 5743 5740 5743 5746 5747
5809 5810 5805 5806 5805 5799 5797 5793 5790 5791 5792 5792 5794 5795 5793 5792 5791 5790 5788 5787 5789 5791 5791 5789 5788 5785 5782 5780 5778 5775 5771 5767 5761 5753 5746 5742 5744 5748 5746 5741 5738 5744 5749
5798 5804 5807 5805 5802 5803 5799 5795 5794 5796 5797 5800 5797 5800 5799 5799 5798 5800 5797 5794 5793 5793 5792 5790 5788 5787 5783 5781 5780 5777 5776 5770 5763 5757 5752 5748 5747 5746 5746 5752 5747 5747 5752
5800 5785 5784 5788 5788 5783 5789 5799 5799 5798 5802 5803 5800 5802 5801 5806 5808 5803 5800 5798 5797 5797 5793 5791 5789 5786 5782 5778 5777 5776 5776 5769 5762 5759 5757 5755 5752 5751 5751 5751 5751 5749 5748
5797 5793 5785 5789 5770 5785 5791 5796 5796 5797 5801 5802 5804 5806 5806 5810 5806 5802 5798 5798 5800 5798 5793 5791 5790 5792 5788 5785 5778 5775 5772 5769 5768 5766 5761 5761 5761 5760 5756 5751 5750 5750 5750
5789 5783 5778 5772 5767 5780 5781 5795 5794 5798 5800 5803 5805 5805 5809 5811 5806 5800 5798 5798 5799 5800 5799 5797 5792 5791 5791 5788 5784 5779 5775 5773 5771 5768 5765 5764 5765 5764 5760 5757 5752 5749 5749
5783 5779 5772 5771 5768 5771 5784 5791 5791 5791 5794 5801 5805 5804 5806 5810 5805 5801 5797 5800 5800 5799 5801 5800 5798 5795 5791 5784 5782 5777 5778 5777 5775 5769 5766 5763 5761 5758 5758 5760 5757 5749 5750
5780 5780 5780 5778 5776 5777 5779 5781 5786 5789 5791 5796 5800 5802 5804 5806 5806 5800 5795 5802 5799 5798 5797 5794 5787 5787 5782 5778 5779 5776 5772 5773 5775 5772 5769 5764 5759 5757 5754 5755 5756 5751 5750
5773 5772 5770 5769 5773 5776 5776 5778 5780 5781 5782 5785 5789 5795 5797 5801 5803 5796 5793 5798 5800 5797 5791 5785 5785 5779 5770 5768 5768 5770 5769 5771 5768 5769 5768 5766 5763 5760 5757 5751 5751 5750 5749
5751 5754 5758 5761 5764 5766 5767 5770 5769 5770 5771 5774 5775 5782 5784 5788 5790 5790 5791 5789 5792 5795 5791 5788 5792 5796 5784 5767 5754 5761 5759 5758 5760 5759 5760 5758 5759 5759 5755 5751 5747 5745 5747
5738 5739 5743 5749 5752 5754 5754 5755 5757 5757 5759 5761 5766 5771 5772 5775 5779 5782 5784 5782 5783 5786 5792 5796 5796 5799 5795 5770 5752 5744 5743 5747 5744 5745 5745 5749 5752 5751 5746 5742 5738 5736 5735
5725 5729 5731 5731 5734 5735 5740 5746 5747 5747 5747 5748 5751 5752 5757 5761 5766 5771 5772 5772 5771 5766 5770 5778 5779 5780 5783 5763 5739 5729 5727 5730 5735 5733 5736 5738 5739 5734 5729 5729 5726 5725 5724
5717 5719 5719 5721 5720 5719 5725 5732 5736 5741 5741 5742 5741 5743 5746 5750 5754 5758 5763 5767 5763 5756 5761 5763 5764 5765 5761 5745 5735 5718 5719 5723 5725 5725 5727 5733 5727 5718 5717 5715 5714 5713 5717
5705 5710 5714 5715 5714 5713 5713 5719 5717 5724 5726 5727 5728 5729 5737 5742 5742 5744 5746 5750 5748 5748 5756 5757 5755 5755 5754 5747 5738 5721 5716 5715 5716 5712 5730 5722 5714 5711 5707 5704 5705 5707 5706
5695 5702 5704 5705 5708 5709 5708 5709 5709 5715 5712 5716 5720 5721 5723 5729 5732 5735 5737 5739 5737 5738 5749 5752 5749 5747 5746 5742 5732 5724 5715 5715 5713 5720 5715 5707 5704 5700 5700 5702 5701 5699 5697
5683 5687 5690 5698 5702 5704 5705 5707 5706 5707 5711 5719 5710 5714 5718 5721 5723 5726 5730 5729 5730 5732 5740 5740 5741 5740 5737 5731 5727 5721 5717 5712 5711 5705 5700 5700 5699 5697 5692 5689 5688 5684 5683
5674 5678 5680 5683 5690 5695 5697 5698 5702 5701 5704 5708 5711 5706 5709 5712 5715 5718 5723 5731 5730 5729 5731 5731 5735 5731 5727 5722 5717 5710 5705 5701 5696 5689 5688 5690 5688 5685 5679 5677 5670 5663 5663
5665 5666 5664 5669 5669 5675 5684 5689 5693 5692 5696 5699 5703 5706 5705 5704 5711 5715 5718 5724 5725 5725 5726 5722 5721 5716 5709 5706 5699 5693 5686 5684 5682 5679 5677 5672 5670 5668 5666 5662 5657 5656 5652
5655 5658 5655 5657 5659 5664 5672 5679 5685 5686 5691 5695 5699 5701 5699 5702 5707 5712 5716 5721 5722 5714 5711 5708 5704 5700 5697 5693 5688 5682 5676 5669 5669 5667 5663 5658 5657 5654 5650 5647 5645 5643 5637
5647 5649 5649 5650 5653 5654 5660 5667 5674 5678 5683 5688 5691 5688 5686 5694 5701 5704 5705 5703 5702 5700 5698 5699 5696 5689 5684 5680 5675 5670 5665 5658 5656 5654 5651 5646 5642 5641 5639 5635 5634 5628 5623
5637 5637 5639 5644 5646 5648 5646 5654 5665 5670 5677 5681 5681 5680 5681 5689 5690 5689 5686 5683 5682 5684 5684 5684 5680 5673 5669 5664 5659 5654 5652 5648 5643 5642 5638 5634 5631 5628 5626 5621 5617 5612 5609
5626 5627 5630 5635 5638 5642 5645 5649 5654 5659 5670 5673 5674 5673 5677 5677 5675 5673 5672 5672 5670 5670 5669 5665 5662 5659 5651 5648 5642 5640 5638 5634 5630 5628 5627 5622 5616 5610 5608 5605 5601 5598 5596
5622 5625 5630 5631 5634 5638 5641 5645 5653 5661 5665 5664 5666 5666 5665 5663 5659 5658 5661 5663 5659 5658 5655 5651 5646 5642 5638 5636 5633 5629 5625 5621 5619 5614 5611 5605 5603 5599 5597 5594 5590 5584 5579
5630 5630 5630 5634 5637 5640 5642 5649 5655 5659 5658 5660 5659 5656 5655 5650 5650 5648 5648 5648 5645 5643 5637 5634 5632 5625 5624 5623 5619 5614 5610 5605 5601 5601 5599 5595 5591 5588 5584 5579 5573 5571 5564